Flag for Canada Weather past 2 weeks in Timmins, Ontario, Canada

18 °F

Light snow. Mostly cloudy.

Feels Like: 7 °F
Forecast: 11 / 20 °F
Wind: 8 mph from Northeast

Location: Timmins

Current Time: Nov 29, 2015 at 8:10:51 AM

Latest Report: Nov 29, 2015 at 7:00 AM

Visibility: 15 mi

Pressure: 30.43 "Hg

Humidity: 93%

Dew point: 16 °F

Location of TimminsLocation

Historic Weather in Timmins — Graph


Timmins temperature yesterday

Maximum temperature yesterday: 28 °F (at 1:00 PM)
Minimum temperature yesterday: 1 °F (at 3:00 AM)
Average temperature yesterday: 17 °F

Past Weeks' High & Low Weather Summary

High54 °F (Nov 18, 3:00 PM)100% (Nov 14, 9:00 AM)30.52 "Hg (Nov 14, 9:00 AM)
Low1 °F (Nov 28, 3:00 AM)46% (Nov 17, 2:00 PM)29.37 "Hg (Nov 19, 1:00 PM)
Average27 °F82%30.10 "Hg
* Reported Nov 14 7:00 AM — Nov 29 7:00 AM, Timmins, Weather by CustomWeather, © 2015

Note: Actual official high and low records may vary slightly from our data, if they occured in-between our weather recording intervals... More about our weather records


Timmins weather history for previous 24 hours

Time TempWeatherWind HumidityBarometerVisibility
7:00 AM
Sun, Nov 29
18 °FLight snow. Mostly cloudy.8 mph93%30.43 "Hg15 mi
6:00 AM19 °FLight snow. Mostly cloudy.6 mph86%30.40 "Hg10 mi
5:00 AM19 °FLight snow. Mostly cloudy.7 mph93%30.37 "Hg10 mi
4:00 AM21 °FLight snow. Mostly cloudy.3 mph93%30.35 "Hg10 mi
3:00 AM21 °FLight snow. Mostly cloudy.7 mph93%30.33 "Hg10 mi
2:00 AM21 °FLight snow. Mostly cloudy.3 mph100%30.31 "Hg10 mi
1:00 AM23 °FLight snow. Mostly cloudy.5 mph86%30.29 "Hg15 mi
12:00 AM23 °FLight snow. Mostly cloudy.5 mph93%30.28 "Hg10 mi
11:00 PM
Sat, Nov 28
23 °FLight snow. Mostly cloudy.6 mph93%30.28 "Hg15 mi
10:00 PM23 °FLight mixture of precip. Low clouds.No wind100%30.27 "Hg15 mi
9:00 PM25 °FLight mixture of precip. Low clouds.3 mph93%30.27 "Hg15 mi
8:00 PM25 °FLight mixture of precip. Low clouds.2 mph93%30.27 "Hg10 mi
7:00 PM25 °FLight mixture of precip. Mostly cloudy.3 mph93%30.25 "Hg8 mi
6:00 PM27 °FLight mixture of precip. Overcast.5 mph86%30.24 "Hg6 mi
5:00 PM27 °FLight mixture of precip. Mostly cloudy.5 mph93%30.23 "Hg5 mi
4:00 PM28 °FLight snow. More clouds than sun.9 mph93%30.21 "Hg15 mi
3:00 PM28 °FMore clouds than sun.5 mph93%30.19 "Hg15 mi
2:00 PM28 °FMostly cloudy.8 mph86%30.20 "Hg15 mi
1:00 PM28 °FMostly cloudy.7 mph86%30.22 "Hg15 mi
12:00 PM27 °FOvercast.8 mph86%30.23 "Hg15 mi
11:00 AM23 °FCloudy.6 mph86%30.26 "Hg15 mi
10:00 AM18 °FPartly sunny.8 mph93%30.28 "Hg15 mi
9:00 AM12 °FPartly sunny.8 mph92%30.29 "Hg15 mi
8:00 AM10 °FPartly sunny.8 mph85%30.30 "Hg15 mi
Weather by CustomWeather, © 2015

See weather overviewHow to use our weather pages